Annapolis Naval Academy, MD

10:34 PM EDT on September 23, 2017 (GMT -0400)
Annapolis Naval Academy

Weather History for KNAK - May, 2014

Change the Weather History Date:

Sunday, May 25, 2014

  Actual Average (KBWI) Record (KBWI)
Temperature  
Mean Temperature 66 °F -  
Max Temperature 75 °F 75 °F 94 °F (1991)
Min Temperature 57 °F 55 °F 38 °F (1956)
Cooling Degree Days 1    
Growing Degree Days 16 (Base 50)    
Moisture  
Dew Point 54 °F    
Average Humidity 61    
Maximum Humidity 81    
Minimum Humidity 44    
Precipitation  
Precipitation 0.00 in - - ()
Sea Level Pressure  
Sea Level Pressure 30.13 in    
Wind  
Wind Speed 4 mph (South)    
Max Wind Speed 12 mph    
Max Gust Speed -    
Visibility 10 miles    
Events      
Averages and records for this station are not official NWS values.
T = Trace of Precipitation, MM = Missing Value Source: NWS Daily Summary

Daily Weather History Graph

Daily Weather History Graph

Search for Another Location

Airport or City:

Trip Planner

Search our weather history database for the weather conditions in past years. The results will help you decide how hot, cold, wet, or windy it might be!

Date:

Astronomy

May. 25, 2014 Rise Set
Actual Time 5:45 AM EDT 8:20 PM EDT
Civil Twilight 5:14 AM EDT 8:51 PM EDT
Nautical Twilight 4:36 AM EDT 9:29 PM EDT
Astronomical Twilight 3:53 AM EDT 10:13 PM EDT
Moon 3:47 AM EDT (5/25) 5:20 PM EDT (5/25)
Length of Visible Light 15h 36m
Length of Day
14h 34m
Waning Crescent, 10% of the Moon is Illuminated
May 25
Waning Crescent
May 28
New
Jun 5
First Quarter
Jun 13
Full
Jun 19
Last Quarter

Hourly Weather History & Observations

Time (EDT) Temp. Dew Point Humidity Pressure Visibility Wind Dir Wind Speed Gust Speed Precip Events Conditions
12:54 AM 66.0 °F 51.1 °F 59% 30.10 in 10.0 mi NNE 3.5 mph - N/A   Partly Cloudy
1:54 AM 62.1 °F 53.1 °F 72% 30.10 in 10.0 mi Calm Calm - N/A   Clear
2:54 AM 64.0 °F 52.0 °F 65% 30.10 in 10.0 mi NNW 5.8 mph - N/A   Clear
3:54 AM 63.0 °F 51.1 °F 65% 30.10 in 10.0 mi West 3.5 mph - N/A   Overcast
4:54 AM 61.0 °F 52.0 °F 72% 30.10 in 10.0 mi Calm Calm - N/A   Clear
5:54 AM 57.9 °F 52.0 °F 81% 30.12 in 10.0 mi WSW 3.5 mph - N/A   Clear
6:54 AM 60.1 °F 52.0 °F 75% 30.14 in 10.0 mi West 3.5 mph - N/A   Clear
7:54 AM 63.0 °F 54.0 °F 72% 30.15 in 10.0 mi NNW 5.8 mph - N/A   Clear
8:54 AM 66.0 °F 55.0 °F 68% 30.16 in 10.0 mi NNW 4.6 mph - N/A   Clear
9:54 AM 70.0 °F 55.0 °F 59% 30.17 in 10.0 mi North 3.5 mph - N/A   Clear
10:54 AM 73.0 °F 53.1 °F 49% 30.17 in 10.0 mi NW 3.5 mph - N/A   Clear
11:54 AM 70.0 °F 59.0 °F 68% 30.17 in 10.0 mi SE 9.2 mph - N/A   Clear
12:54 PM 71.1 °F 59.0 °F 66% 30.15 in 10.0 mi ESE 11.5 mph - N/A   Scattered Clouds
1:54 PM 73.9 °F 51.1 °F 45% 30.13 in 10.0 mi SE 9.2 mph - N/A   Clear
2:54 PM 73.9 °F 55.0 °F 52% 30.12 in 10.0 mi SE 9.2 mph - N/A   Clear
3:54 PM 75.0 °F 52.0 °F 44% 30.11 in 10.0 mi SE 11.5 mph - N/A   Clear
4:54 PM 75.0 °F 53.1 °F 46% 30.11 in 10.0 mi SE 11.5 mph - N/A   Clear
5:54 PM 75.0 °F 54.0 °F 48% 30.10 in 10.0 mi South 6.9 mph - N/A   Clear
6:54 PM 73.9 °F 51.1 °F 45% 30.10 in 10.0 mi South 5.8 mph - N/A   Clear
7:54 PM 72.0 °F 51.1 °F 48% 30.11 in 10.0 mi South 4.6 mph - N/A   Clear
8:54 PM 71.1 °F 55.9 °F 59% 30.12 in 10.0 mi Calm Calm - N/A   Clear
9:54 PM 70.0 °F 54.0 °F 57% 30.13 in 10.0 mi Calm Calm - N/A   Clear
10:54 PM 66.0 °F 57.9 °F 75% 30.13 in 10.0 mi Calm Calm - N/A   Clear
11:54 PM 66.0 °F 57.9 °F 75% 30.13 in 10.0 mi Calm Calm - N/A   Clear